Regional Weather Roundup
Issued by NWS

Home | Current Version | Previous Version | Text Only | Print | Product List | Glossary Off
Versions: 1 2 3 4 5 6 7 8 9 10 11 12 13 14 15 16 17 18 19 20 21 22 23 24 25 26 27 28 29 30 31 32 33 34 35 36 37 38 39 40 41 42 43 44 45 46 47 48 49 50

000
ASUS43 KLSX 271459
RWRMO

WEATHER SUMMARY FOR MISSOURI
NATIONAL WEATHER SERVICE SPRINGFIELD MO
1000 AM CDT WED MAY 27 2015

NOTE: "FAIR" INDICATES FEW OR NO CLOUDS BELOW 12,000 FEET WITH NO
       SIGNIFICANT WEATHER AND/OR OBSTRUCTIONS TO VISIBILITY.
       CURRENT SKY AND/OR WEATHER CONDITIONS ARE NOT AVAILABLE FOR
       CHILLICOTHE AND FARMINGTON.

MOZ001>031-035>038-043-044-053-054-271600-
...NORTHERN AND WESTERN MISSOURI...

CITY           SKY/WX    TMP DP  RH WIND       PRES   REMARKS
KANSAS CTY INT MOSUNNY   73  58  59 N7        30.08S
KANSAS C DTWN  SUNNY     75  57  53 CALM      30.08R
LEE`S SUMMIT   SUNNY     73  56  54 CALM      30.10R
ST JOSEPH      SUNNY     72  57  59 CALM      30.08R
KIRKSVILLE     SUNNY     70  59  68 W8        30.07R

$$
MOZ066>068-077>081-088>096-101>105-271600-
...SOUTHWEST MISSOURI...

CITY           SKY/WX    TMP DP  RH WIND       PRES   REMARKS
SPRINGFIELD    PTSUNNY   72  67  84 CALM      30.10S
JOPLIN         MOSUNNY   76  66  71 CALM      30.10R

$$
MOZ032>034-039>042-045>050-055>058-069>072-271600-
...CENTRAL MISSOURI...

CITY           SKY/WX    TMP DP  RH WIND       PRES   REMARKS
COLUMBIA       SUNNY     74  59  59 NW8       30.08R
JEFFERSON CITY MOSUNNY   73  59  61 NW12      30.07R
ROLLA          PTSUNNY   68  64  87 SW9       30.09R
SEDALIA        SUNNY     74  57  55 NW3       30.10R

$$
MOZ051-052-059>065-271600-
...EAST CENTRAL MISSOURI...

CITY           SKY/WX    TMP DP  RH WIND       PRES   REMARKS
ST LOUIS INTL  CLOUDY    74  59  59 SW12      30.05F
SPIRIT OF STL  CLOUDY    72  62  71 W9        30.05S
ST CHARLES     CLOUDY    72  63  73 SW9       30.04F

$$
MOZ072>076-082>087-097>100-106>115-271600-
...SOUTH CENTRAL AND SOUTHEAST MISSOURI...

CITY           SKY/WX    TMP DP  RH WIND       PRES   REMARKS
CAPE GIRARDEAU LGT RAIN  70  61  73 N12       30.08F
FARMINGTON     CLOUDY    64  61  88 W8        30.13R
POPLAR BLUFF   CLOUDY    70  62  76 SE8       30.11F
WEST PLAINS    PTSUNNY   68  62  81 VRB3      30.15R

$$


USA.gov is the U.S. government's official web portal to all federal, state and local government web resources and services.